Weather History for North Bend, OR

Change the Weather History Date:

Friday, May 18, 2012

  Actual Average Record
Temperature  
Mean Temperature 47 °F 53 °F  
Max Temperature 57 °F 59 °F 76 °F (1926)
Min Temperature 37 °F 47 °F 35 °F (1909)
Degree Days  
Heating Degree Days 18 12  
Month to date heating degree days 253 231  
Since 1 July heating degree days 4472 4417  
Cooling Degree Days 0 0  
Month to date cooling degree days 0 0  
Year to date cooling degree days 0 0  
Moisture  
Dew Point 36 °F    
Average Humidity 59    
Maximum Humidity 71    
Minimum Humidity 47    
Precipitation  
Precipitation 0.00 in 0.10 in 0.82 in (1953)
Month to date precipitation 1.01 2.03  
Year to date precipitation 24.75 32.81  
Sea Level Pressure  
Sea Level Pressure 30.19 in    
Wind  
Wind Speed 11 mph (North)    
Max Wind Speed 25 mph    
Max Gust Speed 31 mph    
Visibility 10 miles    
Events      
T = Trace of Precipitation, MM = Missing Value Source: NWS Daily Summary

Daily Weather History Graph

Daily Weather History Graph

Search for Another Location

Airport:

Trip Planner

Search our weather history database for the weather conditions in past years. The results will help you decide how hot, cold, wet, or windy it might be!

Date:

Astronomy

May. 18, 2012 Rise Set
Actual Time 5:48 AM PDT 8:38 PM PDT
Civil Twilight 5:15 AM PDT 9:12 PM PDT
Nautical Twilight 4:33 AM PDT 9:54 PM PDT
Astronomical Twilight 3:44 AM PDT 10:43 PM PDT
Moon 4:24 AM PDT (5/18) 6:50 PM PDT (5/18)
Length of Visible Light 15h 56m
Length of Day
14h 49m
Waning Crescent, 4% of the Moon is Illuminated
May 18
Waning Crescent
May 20
New
May 28
First Quarter
Jun 4
Full
Jun 11
Last Quarter

Hourly Weather History & Observations

Time (PDT) Temp. Windchill Dew Point Humidity Pressure Visibility Wind Dir Wind Speed Gust Speed Precip Events Conditions
12:15 AM 48.2 °F - 35.6 °F 62% 30.21 in 10.0 mi NNE 11.5 mph - N/A   Overcast
12:35 AM 48.2 °F - 35.6 °F 62% 30.21 in 10.0 mi NNE 8.1 mph - N/A   Overcast
12:55 AM 48.2 °F - 35.6 °F 62% 30.22 in 10.0 mi North 8.1 mph - N/A   Overcast
1:15 AM 48.2 °F - 35.6 °F 62% 30.21 in 10.0 mi North 6.9 mph - N/A   Overcast
1:35 AM 48.2 °F - 33.8 °F 58% 30.21 in 10.0 mi North 6.9 mph - N/A   Overcast
1:55 AM 46.4 °F 43.5 °F 33.8 °F 62% 30.22 in 10.0 mi North 5.8 mph - N/A   Mostly Cloudy
2:15 AM 46.4 °F 42.9 °F 33.8 °F 62% 30.22 in 10.0 mi North 6.9 mph - N/A   Overcast
2:35 AM 46.4 °F 43.5 °F 33.8 °F 62% 30.22 in 10.0 mi North 5.8 mph - N/A   Overcast
2:55 AM 46.4 °F 45.2 °F 33.8 °F 62% 30.22 in 10.0 mi North 3.5 mph - N/A   Overcast
3:15 AM 44.6 °F 42.2 °F 33.8 °F 66% 30.21 in 10.0 mi NNE 4.6 mph - N/A   Mostly Cloudy
3:35 AM 44.6 °F 42.2 °F 33.8 °F 66% 30.21 in 10.0 mi NNE 4.6 mph - N/A   Partly Cloudy
3:55 AM 44.6 °F 42.2 °F 33.8 °F 66% 30.21 in 10.0 mi NE 4.6 mph - N/A   Clear
4:15 AM 42.8 °F 40.1 °F 32.0 °F 66% 30.21 in 10.0 mi SE 4.6 mph - N/A   Clear
4:35 AM 39.2 °F 35.0 °F 30.2 °F 70% 30.20 in 10.0 mi SE 5.8 mph - N/A   Clear
4:55 AM 39.2 °F 35.0 °F 30.2 °F 70% 30.21 in 10.0 mi SE 5.8 mph - N/A   Clear
5:15 AM 39.2 °F 35.0 °F 30.2 °F 70% 30.21 in 10.0 mi SE 5.8 mph - N/A   Clear
5:35 AM 37.4 °F 32.8 °F 30.2 °F 75% 30.21 in 10.0 mi SSE 5.8 mph - N/A   Clear
5:55 AM 37.4 °F 33.8 °F 28.4 °F 70% 30.22 in 10.0 mi SE 4.6 mph - N/A   Clear
6:15 AM 37.4 °F 33.8 °F 28.4 °F 70% 30.22 in 10.0 mi SSE 4.6 mph - N/A   Clear
6:35 AM 39.2 °F 37.0 °F 30.2 °F 70% 30.23 in 10.0 mi SSE 3.5 mph - N/A   Clear
6:55 AM 42.8 °F 39.3 °F 33.8 °F 70% 30.23 in 10.0 mi ESE 5.8 mph - N/A   Clear
7:15 AM 42.8 °F 39.3 °F 33.8 °F 70% 30.23 in 10.0 mi ESE 5.8 mph - N/A   Clear
7:35 AM 44.6 °F 42.2 °F 35.6 °F 71% 30.23 in 10.0 mi ESE 4.6 mph - N/A   Clear
7:55 AM 44.6 °F 42.2 °F 35.6 °F 71% 30.23 in 10.0 mi SSE 4.6 mph - N/A   Clear
8:15 AM 46.4 °F - 35.6 °F 66% 30.23 in 10.0 mi Calm Calm - N/A   Clear
8:35 AM 48.2 °F - 35.6 °F 62% 30.23 in 10.0 mi North 3.5 mph - N/A   Clear
8:55 AM 50.0 °F - 35.6 °F 58% 30.23 in 10.0 mi Calm Calm - N/A   Clear
9:15 AM 51.8 °F - 35.6 °F 54% 30.23 in 10.0 mi Calm Calm - N/A   Clear
9:35 AM 51.8 °F - 35.6 °F 54% 30.23 in 10.0 mi Calm Calm - N/A   Clear
9:55 AM 53.6 °F - 35.6 °F 51% 30.23 in 10.0 mi NNW 10.4 mph - N/A   Scattered Clouds
10:15 AM 53.6 °F - 35.6 °F 51% 30.22 in 10.0 mi NNW 8.1 mph - N/A   Partly Cloudy
10:35 AM 55.4 °F - 35.6 °F 47% 30.22 in 10.0 mi North 8.1 mph - N/A   Clear
10:55 AM 55.4 °F - 37.4 °F 51% 30.22 in 10.0 mi NW 11.5 mph - N/A   Clear
11:15 AM 55.4 °F - 37.4 °F 51% 30.21 in 10.0 mi NNW 11.5 mph - N/A   Partly Cloudy
11:35 AM 55.4 °F - 37.4 °F 51% 30.21 in 10.0 mi NW 13.8 mph - N/A   Clear
11:55 AM 55.4 °F - 37.4 °F 51% 30.21 in 10.0 mi NNW 17.3 mph - N/A   Clear
12:15 PM 55.4 °F - 35.6 °F 47% 30.21 in 10.0 mi NNW 17.3 mph - N/A   Clear
12:35 PM 55.4 °F - 37.4 °F 51% 30.21 in 10.0 mi NNW 18.4 mph - N/A   Clear
12:55 PM 57.2 °F - 37.4 °F 48% 30.20 in 10.0 mi NNW 15.0 mph - N/A   Clear
1:15 PM 57.2 °F - 37.4 °F 48% 30.20 in 10.0 mi NNW 17.3 mph - N/A   Clear
1:35 PM 57.2 °F - 37.4 °F 48% 30.20 in 10.0 mi NNW 19.6 mph 23.0 mph N/A   Clear
1:55 PM 55.4 °F - 37.4 °F 51% 30.20 in 10.0 mi North 20.7 mph 25.3 mph N/A   Clear
2:15 PM 57.2 °F - 37.4 °F 48% 30.20 in 10.0 mi North 21.9 mph 26.5 mph N/A   Clear
2:35 PM 55.4 °F - 37.4 °F 51% 30.19 in 10.0 mi North 19.6 mph 27.6 mph N/A   Clear
2:55 PM 55.4 °F - 37.4 °F 51% 30.19 in 10.0 mi North 21.9 mph 26.5 mph N/A   Clear
3:15 PM 55.4 °F - 37.4 °F 51% 30.18 in 10.0 mi North 19.6 mph 27.6 mph N/A   Clear
3:35 PM 55.4 °F - 37.4 °F 51% 30.18 in 10.0 mi North 21.9 mph 28.8 mph N/A   Clear
3:55 PM 55.4 °F - 37.4 °F 51% 30.18 in 10.0 mi North 21.9 mph 28.8 mph N/A   Clear
4:15 PM 55.4 °F - 37.4 °F 51% 30.18 in 10.0 mi North 21.9 mph 28.8 mph N/A   Clear
4:35 PM 55.4 °F - 37.4 °F 51% 30.19 in 10.0 mi North 24.2 mph 29.9 mph N/A   Clear
4:55 PM 55.4 °F - 37.4 °F 51% 30.18 in 10.0 mi North 25.3 mph 31.1 mph N/A   Clear
5:15 PM 55.4 °F - 37.4 °F 51% 30.18 in 10.0 mi North 25.3 mph 31.1 mph N/A   Clear
5:35 PM 55.4 °F - 37.4 °F 51% 30.17 in 10.0 mi North 20.7 mph 28.8 mph N/A   Clear
5:55 PM 53.6 °F - 37.4 °F 54% 30.16 in 10.0 mi North 23.0 mph 29.9 mph N/A   Clear
6:15 PM 53.6 °F - 37.4 °F 54% 30.16 in 10.0 mi North 24.2 mph 31.1 mph N/A   Clear
6:35 PM 53.6 °F - 37.4 °F 54% 30.15 in 10.0 mi North 23.0 mph 27.6 mph N/A   Clear
6:55 PM 53.6 °F - 37.4 °F 54% 30.15 in 10.0 mi North 17.3 mph - N/A   Clear
7:15 PM 53.6 °F - 37.4 °F 54% 30.15 in 10.0 mi North 12.7 mph - N/A   Clear
7:35 PM 53.6 °F - 37.4 °F 54% 30.15 in 10.0 mi NNW 12.7 mph - N/A   Clear
7:55 PM 51.8 °F - 37.4 °F 58% 30.15 in 10.0 mi North 10.4 mph - N/A   Clear
8:15 PM 51.8 °F - 37.4 °F 58% 30.15 in 10.0 mi NNW 9.2 mph - N/A   Clear
8:35 PM 50.0 °F - 37.4 °F 62% 30.14 in 10.0 mi NNW 10.4 mph - N/A   Clear
8:55 PM 48.2 °F - 37.4 °F 66% 30.15 in 10.0 mi NNW 9.2 mph - N/A   Clear
9:15 PM 48.2 °F - 37.4 °F 66% 30.15 in 10.0 mi NNW 9.2 mph - N/A   Clear
9:35 PM 48.2 °F - 37.4 °F 66% 30.15 in 10.0 mi NNW 10.4 mph - N/A   Clear
9:55 PM 48.2 °F - 35.6 °F 62% 30.16 in 10.0 mi NNW 6.9 mph - N/A   Clear
10:15 PM 48.2 °F - 35.6 °F 62% 30.16 in 10.0 mi NNW 6.9 mph - N/A   Partly Cloudy
10:35 PM 48.2 °F - 37.4 °F 66% 30.16 in 9.0 mi NNW 9.2 mph - N/A   Scattered Clouds
10:55 PM 48.2 °F - 37.4 °F 66% 30.16 in 10.0 mi NNW 6.9 mph - N/A   Partly Cloudy
11:15 PM 48.2 °F - 37.4 °F 66% 30.16 in 10.0 mi North 8.1 mph - N/A   Clear
11:35 PM 48.2 °F - 37.4 °F 66% 30.15 in 10.0 mi North 8.1 mph - N/A   Clear
11:55 PM 46.4 °F 43.5 °F 37.4 °F 71% 30.15 in 10.0 mi NNE 5.8 mph - N/A   Mostly Cloudy